Hourly Weather Kaladzhuh

Today, 8 March, Monday

Time Temperature Precipitation Wind Pressure Humidity
00:00 -6°C° 0.1 mm 2 mps 641 mmHg 85%
01:00 -5°C° 0 mm 2 mps 640 mmHg 84%
02:00 -5°C° 0 mm 2 mps 640 mmHg 83%
03:00 -5°C° 0 mm 2 mps 640 mmHg 81%
04:00 -5°C° 0 mm 2 mps 640 mmHg 81%
05:00 -5°C° 0 mm 2 mps 640 mmHg 80%
06:00 -5°C° 0 mm 2 mps 640 mmHg 80%
07:00 -4°C° 0 mm 2 mps 640 mmHg 79%
08:00 -2°C° 0 mm 2 mps 640 mmHg 79%
09:00 -1°C° 0 mm 2 mps 641 mmHg 78%
10:00 +1°C° 0 mm 2 mps 640 mmHg 80%
11:00 +2°C° 0 mm 2 mps 640 mmHg 81%
12:00 +2°C° 0 mm 2 mps 640 mmHg 83%
13:00 +2°C° 0.1 mm 2 mps 639 mmHg 84%
14:00 +2°C° 0.1 mm 2 mps 638 mmHg 86%
15:00 +2°C° 0.1 mm 2 mps 637 mmHg 87%
16:00 -1°C° 0 mm 2 mps 637 mmHg 87%
17:00 -2°C° 0 mm 2 mps 637 mmHg 86%
18:00 -3°C° 0 mm 2 mps 636 mmHg 86%
19:00 -3°C° 0.8 mm 2 mps 637 mmHg 88%
20:00 -3°C° 0.8 mm 2 mps 637 mmHg 91%
21:00 -4°C° 0.8 mm 2 mps 637 mmHg 93%
22:00 -4°C° 0.3 mm 2 mps 637 mmHg 94%
23:00 -5°C° 0.3 mm 2 mps 636 mmHg 94%

Tomorrow, 9 March, Tuesday

Time Temperature Precipitation Wind Pressure Humidity
00:00 -5°C° 0.3 mm 2 mps 636 mmHg 94%
01:00 -6°C° 0 mm 2 mps 636 mmHg 89%
02:00 -4°C° 0 mm 1 mps 636 mmHg 84%
03:00 -6°C° 0 mm 1 mps 636 mmHg 80%
04:00 -7°C° 0 mm 2 mps 635 mmHg 72%
05:00 -7°C° 0 mm 2 mps 635 mmHg 65%
06:00 -8°C° 0 mm 2 mps 635 mmHg 58%
07:00 -6°C° 0 mm 2 mps 636 mmHg 62%
08:00 -5°C° 0 mm 2 mps 637 mmHg 65%
09:00 -3°C° 0 mm 2 mps 638 mmHg 69%
10:00 -3°C° 0 mm 2 mps 638 mmHg 72%
11:00 -2°C° 0 mm 2 mps 638 mmHg 75%
12:00 -2°C° 0 mm 2 mps 638 mmHg 78%
13:00 -2°C° 0 mm 3 mps 638 mmHg 78%
14:00 -2°C° 0 mm 3 mps 637 mmHg 78%
15:00 -2°C° 0 mm 3 mps 637 mmHg 78%
16:00 -5°C° 0 mm 3 mps 637 mmHg 79%
17:00 -6°C° 0 mm 3 mps 637 mmHg 79%
18:00 -7°C° 0 mm 3 mps 637 mmHg 79%
19:00 -7°C° 0 mm 3 mps 637 mmHg 76%
20:00 -8°C° 0 mm 3 mps 637 mmHg 74%
21:00 -8°C° 0 mm 3 mps 638 mmHg 71%
22:00 -8°C° 0 mm 3 mps 638 mmHg 70%
23:00 -8°C° 0 mm 3 mps 637 mmHg 69%

Day after tomorrow, 10 March, Wednesday

Time Temperature Precipitation Wind Pressure Humidity
00:00 -8°C° 0 mm 3 mps 637 mmHg 68%
01:00 -8°C° 0 mm 3 mps 638 mmHg 65%
02:00 -9°C° 0 mm 3 mps 638 mmHg 62%
03:00 -8°C° 0 mm 2 mps 638 mmHg 59%
04:00 -8°C° 0 mm 2 mps 638 mmHg 58%
05:00 -8°C° 0 mm 2 mps 638 mmHg 58%
06:00 -8°C° 0 mm 2 mps 638 mmHg 57%
07:00 -7°C° 0 mm 2 mps 639 mmHg 63%
08:00 -6°C° 0 mm 2 mps 640 mmHg 70%
09:00 -4°C° 0 mm 2 mps 640 mmHg 77%
10:00 -4°C° 0.1 mm 2 mps 640 mmHg 78%
11:00 -4°C° 0.1 mm 3 mps 640 mmHg 79%
12:00 -4°C° 0.1 mm 3 mps 640 mmHg 80%
13:00 -4°C° 0.1 mm 3 mps 640 mmHg 79%
14:00 -4°C° 0.1 mm 3 mps 640 mmHg 78%
15:00 -4°C° 0.1 mm 3 mps 640 mmHg 78%
16:00 -5°C° 0.1 mm 3 mps 639 mmHg 79%
17:00 -6°C° 0.1 mm 3 mps 639 mmHg 81%
18:00 -7°C° 0.1 mm 3 mps 639 mmHg 82%
19:00 -8°C° 0.1 mm 3 mps 639 mmHg 81%
20:00 -8°C° 0.1 mm 3 mps 639 mmHg 81%
21:00 -7°C° 0.1 mm 2 mps 639 mmHg 80%
22:00 -7°C° 0.1 mm 2 mps 639 mmHg 81%
23:00 -7°C° 0.1 mm 2 mps 639 mmHg 82%

11 March, Thursday

Time Temperature Precipitation Wind Pressure Humidity
00:00 -7°C° 0.1 mm 2 mps 638 mmHg 84%
01:00 -7°C° 0.1 mm 2 mps 638 mmHg 85%
02:00 -7°C° 0.1 mm 2 mps 638 mmHg 86%
03:00 -7°C° 0.1 mm 2 mps 638 mmHg 87%
04:00 -7°C° 0.1 mm 2 mps 638 mmHg 89%
05:00 -7°C° 0.1 mm 2 mps 637 mmHg 91%
06:00 -7°C° 0.1 mm 2 mps 637 mmHg 93%
07:00 -6°C° 0.1 mm 2 mps 638 mmHg 92%
08:00 -5°C° 0.1 mm 2 mps 638 mmHg 91%
09:00 -4°C° 0.1 mm 2 mps 639 mmHg 91%
10:00 -4°C° 0.4 mm 3 mps 639 mmHg 91%
11:00 -4°C° 0.4 mm 3 mps 638 mmHg 91%
12:00 -4°C° 0.4 mm 3 mps 638 mmHg 91%
13:00 -4°C° 0.6 mm 3 mps 638 mmHg 92%
14:00 -4°C° 0.6 mm 3 mps 638 mmHg 93%
15:00 -4°C° 0.6 mm 3 mps 637 mmHg 93%
16:00 -4°C° 0.7 mm 2 mps 637 mmHg 94%
17:00 -5°C° 0.7 mm 2 mps 637 mmHg 95%
18:00 -6°C° 0.7 mm 2 mps 636 mmHg 97%
19:00 -6°C° 0.4 mm 2 mps 636 mmHg 96%
20:00 -6°C° 0.4 mm 1 mps 636 mmHg 96%
21:00 -6°C° 0.4 mm 1 mps 636 mmHg 96%
22:00 -7°C° 0.5 mm 1 mps 636 mmHg 96%
23:00 -7°C° 0.5 mm 1 mps 636 mmHg 97%

12 March, Friday

Time Temperature Precipitation Wind Pressure Humidity
00:00 -7°C° 0.5 mm 1 mps 636 mmHg 97%
01:00 -7°C° 0.4 mm 1 mps 636 mmHg 97%
02:00 -8°C° 0.4 mm 1 mps 635 mmHg 97%
03:00 -8°C° 0.4 mm 1 mps 635 mmHg 97%
04:00 -9°C° 0.6 mm 1 mps 635 mmHg 97%
05:00 -9°C° 0.6 mm 1 mps 635 mmHg 97%
06:00 -9°C° 0.6 mm 1 mps 636 mmHg 97%
07:00 -10°C° 0.7 mm 2 mps 636 mmHg 96%
08:00 -9°C° 0.7 mm 2 mps 637 mmHg 96%
09:00 -9°C° 0.7 mm 2 mps 637 mmHg 95%
10:00 -9°C° 0.7 mm 2 mps 637 mmHg 95%
11:00 -9°C° 0.7 mm 2 mps 638 mmHg 95%
12:00 -9°C° 0.7 mm 3 mps 638 mmHg 95%
13:00 -10°C° 0.7 mm 3 mps 638 mmHg 95%
14:00 -10°C° 0.7 mm 3 mps 638 mmHg 96%
15:00 -10°C° 0.7 mm 3 mps 638 mmHg 96%
16:00 -12°C° 0.6 mm 3 mps 638 mmHg 96%
17:00 -13°C° 0.6 mm 3 mps 638 mmHg 96%
18:00 -14°C° 0.6 mm 3 mps 638 mmHg 97%
19:00 -13°C° 0.5 mm 2 mps 639 mmHg 97%
20:00 -13°C° 0.5 mm 2 mps 639 mmHg 97%
21:00 -12°C° 0.5 mm 1 mps 640 mmHg 97%
22:00 -12°C° 0.4 mm 1 mps 640 mmHg 97%
23:00 -12°C° 0.4 mm 1 mps 640 mmHg 97%

13 March, Saturday

Time Temperature Precipitation Wind Pressure Humidity
00:00 -12°C° 0.4 mm 1 mps 640 mmHg 97%
01:00 -12°C° 0.2 mm 1 mps 641 mmHg 97%
02:00 -12°C° 0.2 mm 1 mps 641 mmHg 97%
03:00 -13°C° 0.2 mm 0 mps 641 mmHg 97%
04:00 -13°C° 0 mm 0 mps 641 mmHg 96%
05:00 -14°C° 0 mm 0 mps 641 mmHg 95%
06:00 -15°C° 0 mm 1 mps 641 mmHg 94%
07:00 -13°C° 0 mm 1 mps 642 mmHg 91%
08:00 -11°C° 0 mm 1 mps 644 mmHg 87%
09:00 -9°C° 0 mm 1 mps 645 mmHg 84%
10:00 -8°C° 0 mm 1 mps 645 mmHg 86%
11:00 -7°C° 0 mm 1 mps 645 mmHg 88%
12:00 -8°C° 0 mm 2 mps 645 mmHg 90%
13:00 -8°C° 0.1 mm 2 mps 645 mmHg 91%
14:00 -7°C° 0.1 mm 2 mps 645 mmHg 92%
15:00 -6°C° 0.1 mm 1 mps 645 mmHg 93%
16:00 -8°C° 0.1 mm 1 mps 644 mmHg 93%
17:00 -9°C° 0.1 mm 1 mps 644 mmHg 94%
18:00 -10°C° 0.1 mm 1 mps 643 mmHg 95%
19:00 -11°C° 0 mm 1 mps 643 mmHg 89%
20:00 -11°C° 0 mm 1 mps 644 mmHg 83%
21:00 -11°C° 0 mm 1 mps 644 mmHg 77%
22:00 -13°C° 0 mm 2 mps 643 mmHg 72%
23:00 -13°C° 0 mm 2 mps 643 mmHg 67%
Show more

We Need Your Consent

Meteoprog and our Service Providers may store and access personal data such as cookies, device identifiers or other similar technologies on your device and process such data to personalise content and ads, as well as provide social media features and to analyse the traffic.

  • Store and/or access information on your device

    Cookies, device identifiers or other information can be stored or accessed on your device for the purposes indicated above.

  • Personalised ads and content, ad and content measurement, audience insights, and products development

    Ads and content can be personalised based on a profile. More data can be added to better personalise ads and content. Ad and content performance can be measured. Insights about the audience who saw the ads and content can be derived. Such data can be used to develop or improve user’s experience, systems and software.

By clicking ‘I Agree’ you will allow the use of indicated cookies, device identifiers, web beacons or other similar technologies. Your settings can be changed in the browser on your device.

For certain purposes, legitimate interests may be relied on, rather than consent. You can read more about this in our Privacy and Cookie Policy.